Starlink 34095

operational
NORAD ID: 63809 Int'l Des: 2025-092 Owner: SPXS Country: US Constellation: starlink
LEOCIRCULAR

About Starlink 34095

Description loading...

Live Position

Loading 3D Globe...

Upcoming Passes

Altitude History

Altitude vs Time

uPlot chart will show altitude changes over time

Two-Line Element Set

1 63809U 25092F 25303.72555477 .00035255 00000-0 12832-2 0 9997
2 63809 43.0026 186.9256 0003960 297.9520 62.0931 15.27609971 28730
Epoch: Oct 30, 2025 • Age: 7 hours

Current Status

Altitude 490.4 km
Velocity 7.62 km/s
Sub-Earth Point -30.78°S, 5.22°W
Launch Date May 4, 2025
Age 0.4 years
Type internet

Technical Details

Classification Payload
Mass 575.00 kg
Dry Mass 530.00 kg
Total Mass 575.00 kg
Length 0.30 m
Diameter 4.10 m
Span 29.00 m
Shape Box + pan
Manufacturer SPXS
Bus Type Starlink V2MO
Phase Status In Orbit
Owner/State SPXS/US

Large Constellations

Loading constellations...